Regional Weather Roundup
Issued by NWS New Orleans/Baton Rouge, LA

Home | Current Version | Previous Version | Text Only | Print | Product List | Glossary On
Versions: 1 2 3 4 5 6 7 8 9 10 11 12 13 14 15 16 17 18 19 20 21 22 23 24 25 26 27 28 29 30 31 32 33 34 35 36 37 38 39 40 41 42 43 44 45 46 47 48 49 50
833
ASUS44 KLIX 181101
RWRLIX
NEW ORLEANS REGIONAL WEATHER ROUNDUP
NATIONAL WEATHER SERVICE NEW ORLEANS LA
500 AM CST THU DEC 18 2014

NOTE: "FAIR" INDICATES FEW OR NO CLOUDS BELOW 12,000 FEET WITH NO
      SIGNIFICANT WEATHER AND/OR OBSTRUCTIONS TO VISIBILITY.
      SKY/WX - SKY CONDITION AND SIGNIFICANT WEATHER.
      TMP - AIR TEMPERATURE.     DP    - DEWPOINT TEMPERATURE.
      RH  - RELATIVE HUMIDITY.   PRES  - PRESSURE.
      HI  - HEAT INDEX.          WCI   - WIND CHILL INDEX.

*  THESE STATIONS ARE NOT NWS OR FAA STATIONS AND ARE NOT UNDER
   NWS QUALITY CONTROL.

LAZ038-040-048-061>063-065>067-069-181200-
SOUTHEAST LOUISIANA

CITY           SKY/WX    TMP DP  RH WIND       PRES   REMARKS
N.O. AUDUBON   NOT AVBL
N.O. INTL ARPT MOCLDY    52  46  80 E5        30.16F
N.O. LAKEFRONT PTCLDY    56  49  77 E8        30.17F
N.O. DOWNTOWN*   N/A     54  45  71 NE5       30.16F
SLIDELL        PTCLDY    42  40  92 CALM      30.17S
BATON ROUGE    MOCLDY    47  43  86 NE3       30.15F
BOOTHVILLE     MOCLDY    56  51  84 NE6       30.16S
BELLE CHASSE   PTCLDY    46  44  93 CALM      30.16S
BOGALUSA*        N/A     44  40  88 CALM      30.18F
GALLIANO*      NOT AVBL
NEW ROADS*     NOT AVBL
GONZALES*      NOT AVBL
HAMMOND*       NOT AVBL
HOUMA*         NOT AVBL
PORT FOURCHON* SUNNY     59  54  82 NE6       30.17S

$$

MSZ070-080>082-181200-
SOUTHERN MISSISSIPPI

CITY           SKY/WX    TMP DP  RH WIND       PRES   REMARKS
MCCOMB         CLOUDY    46  41  82 CALM      30.15F
GULFPORT       MOCLDY    46  40  79 N3        30.17S
BILOXI         MOCLDY    44  41  89 NE6       30.18S
PASCAGOULA     MOCLDY    42  40  92 CALM      30.19R

$$

COASTAL OBSERVATIONS
LAKE AND NEARSHORE STATIONS

STATION/POSITION TIME  TEMP    WIND        PRES    WAVE
                       AIR SEA DIR/SP/G            HT/PER
                 (UTC) (F)     (DEG/KT/KT) (MB)    (FT/S)
PASCAGOULA       1000   48      20/  6/  9 1021.4
WAVELAND YACHT   1000   50      60/  8/  9 1020.9
GRAND ISLE       1000   58 62   60/  6/  7 1021.1
SOUTHWEST PASS   1000   58                 1020.3
NEW CANAL        1000   55 57   70/  6/  7 1021.6
SHELL BEACH      1000   56 59   60/  6/  7 1021.1

OFFSHORE STATIONS

STATION/POSITION TIME  TEMP    WIND        PRES    WAVE
                       AIR SEA DIR/SP/G            HT/PER
                 (UTC) (F)     (DEG/KT/KT) (MB)    (FT/S)
64 S DAUPHIN ISL 1100   63 74  100/  4/  6 1020.3    1

$$




USA.gov is the U.S. government's official web portal to all federal, state and local government web resources and services.